Temp
31 28 26 26 26 28 28 28 30 31 30 29 28 27 27 26 27 30 31 31 32 29 30 31 30 29 29 29 29 29 29 30 29 29 29 29 28 28 28 28 28 27 27 27 27 26 25 25 24 24 23 23 23 22 22 22 22 22 22 21 21 21 21 21 21 21 21 21 21 21 21 21 21 21 20 20 20 20 20 20 21 21 20 20 19 19
31 28 27 29 30 31 30 30 31 32 31 31 29 26 26 26 28 31 32 31 32 29 29 32 30 29 30 29 29 30 29 29 29 29 29 29 28 28 28 28 28 27 28 27 26 26 25 24 24 24 23 23 23 22 22 22 22 22 22 21 21 21 21 21 21 21 21 21 21 21 21 21 21 21 20 20 20 20 20 20 20 21 21 20 20 20
28 27 29 31 32 31 31 31 32 32 31 30 29 26 24 27 29 30 31 32 32 29 29 31 30 29 30 30 30 30 29 29 30 30 29 29 29 29 28 28 28 28 27 26 25 25 25 24 24 24 23 23 23 22 22 22 22 22 22 21 21 21 21 21 21 21 21 21 21 21 21 21 21 20 20 20 20 20 20 20 20 20 21 21 20 20
24 28 31 33 32 32 32 32 32 32 30 28 28 25 24 28 28 26 29 32 31 30 29 30 29 29 31 30 30 30 30 30 30 30 30 30 29 29 29 28 28 28 27 26 25 25 25 24 24 24 23 23 23 22 22 22 22 21 21 21 21 21 21 21 21 21 21 20 21 21 21 21 21 21 20 20 20 20 20 20 20 20 21 21 21 21
27 30 33 33 33 33 32 33 33 30 28 29 29 26 26 29 28 27 29 31 30 29 30 29 26 26 29 29 29 30 30 30 30 30 30 30 30 30 29 29 28 28 27 26 26 26 25 25 24 24 23 23 23 23 22 22 22 22 22 21 21 21 21 21 21 21 21 20 21 21 21 21 21 21 21 21 21 20 20 20 20 20 20 21 21 21
30 32 33 33 33 33 32 32 32 30 27 27 29 30 29 29 30 30 30 28 25 24 28 28 22 22 27 28 29 30 30 30 30 30 30 30 30 30 30 29 29 28 27 27 26 26 26 25 24 24 23 23 23 23 23 22 22 22 22 21 21 21 21 21 21 21 21 21 21 21 21 21 21 21 21 21 21 20 20 20 20 20 20 20 20 20
31 33 33 33 33 33 33 32 32 31 27 24 29 32 30 31 30 29 29 26 22 22 27 28 23 21 24 26 28 29 30 30 29 30 30 30 30 30 30 29 29 29 28 27 27 26 26 25 25 24 24 23 23 23 23 22 22 22 22 22 21 21 21 21 21 21 21 21 21 21 21 21 21 21 21 21 21 21 20 20 20 20 20 20 20 20
33 33 33 34 33 33 32 30 31 32 27 25 30 33 31 31 30 28 28 25 24 25 26 27 25 22 21 25 28 28 28 30 29 30 30 30 30 30 30 29 29 29 28 28 27 27 26 25 25 25 24 24 24 24 23 22 23 22 22 22 22 21 21 21 21 21 21 21 21 21 22 22 22 21 21 21 21 21 21 20 20 20 20 20 20 20
34 32 33 34 33 32 31 31 32 32 29 28 33 33 31 31 30 29 28 25 25 25 22 24 26 22 20 25 29 28 27 28 29 30 30 30 30 30 30 30 30 29 29 28 28 27 26 26 25 25 24 24 24 24 23 23 23 22 22 22 22 21 21 22 21 21 21 21 21 21 22 22 22 22 22 21 21 21 21 21 20 20 20 20 20 20
33 33 34 34 33 32 33 33 33 32 31 32 34 32 30 29 27 25 25 24 24 23 20 22 24 22 21 23 27 27 25 27 29 30 30 30 30 31 30 30 30 30 29 29 28 27 27 26 25 25 24 25 24 24 23 23 23 22 22 22 22 22 22 22 21 21 21 21 21 22 22 22 22 22 22 22 21 21 21 21 21 20 20 20 20 20
34 34 35 34 33 34 34 34 34 33 33 33 33 31 28 27 26 24 24 24 22 21 21 23 24 23 21 22 25 26 26 28 30 30 30 31 31 31 31 31 30 30 29 29 28 27 27 26 26 25 25 25 24 24 24 23 23 22 22 22 22 22 22 22 21 21 21 21 22 22 22 23 23 22 22 22 22 22 21 21 21 21 20 20 20 20
34 34 34 35 34 34 34 34 34 34 34 33 32 30 26 24 24 23 23 23 22 21 22 24 25 23 20 22 26 27 28 30 30 30 30 31 31 31 31 31 31 30 29 29 28 27 27 26 25 25 25 25 24 24 24 24 23 23 22 22 22 22 22 22 21 22 21 21 22 22 22 23 23 23 22 22 22 22 22 21 21 21 21 20 20 20
32 33 34 35 35 35 34 32 32 33 34 33 30 27 23 21 21 21 21 22 21 21 23 24 24 23 22 25 28 28 29 31 31 31 31 31 31 31 31 31 31 30 29 29 28 27 26 25 25 25 25 25 24 24 24 24 24 23 23 22 22 22 22 22 22 22 22 22 22 22 22 22 22 23 23 23 23 22 22 22 21 21 21 21 21 21
27 31 33 34 34 35 34 31 28 29 32 31 28 24 22 21 21 21 21 21 21 22 24 24 23 22 23 26 30 30 31 32 32 32 32 32 32 31 31 31 31 30 30 29 28 27 26 26 25 25 25 24 24 24 24 24 24 23 23 22 22 22 22 22 22 22 22 22 22 22 22 22 22 23 23 23 22 22 22 22 22 22 21 21 21 21
23 25 30 32 32 34 34 33 31 31 31 31 30 27 23 21 21 21 21 21 21 22 23 24 23 21 22 27 33 33 33 33 33 33 33 32 32 31 32 32 31 30 30 29 28 27 26 26 25 25 25 24 24 24 24 25 24 24 23 22 22 22 22 22 22 22 22 22 22 22 22 22 22 22 22 22 22 22 22 22 22 22 21 22 22 22
23 23 31 33 33 34 34 34 35 33 30 30 32 28 23 24 24 22 22 22 21 21 22 23 23 24 26 31 34 34 33 34 33 33 33 32 32 32 31 32 31 30 30 29 28 27 26 26 25 25 25 24 24 24 24 24 24 24 23 23 23 22 22 22 22 22 22 22 22 22 22 22 22 22 22 22 22 22 22 22 22 22 22 22 22 22
22 24 32 34 33 35 34 35 36 32 28 29 29 25 26 31 28 22 21 23 22 21 22 23 23 25 27 30 34 34 33 33 33 33 33 32 32 32 31 31 31 31 31 29 28 27 26 26 25 25 25 24 24 24 24 24 24 24 23 23 23 23 22 22 22 22 22 22 22 22 22 22 22 22 22 22 22 22 22 22 22 22 22 22 22 21
26 24 31 34 32 34 35 35 36 35 32 29 26 27 30 31 30 25 22 22 22 21 22 22 22 23 23 25 31 34 33 33 33 32 33 32 32 31 32 31 31 31 31 29 28 27 26 26 26 25 25 25 24 24 24 24 24 24 23 23 23 23 23 22 22 22 22 22 22 22 22 22 22 22 22 22 22 22 22 22 22 22 22 21 22 21
29 24 28 34 32 33 37 34 31 34 36 32 29 32 30 24 24 24 22 22 22 21 22 22 22 22 22 24 29 32 32 33 33 32 32 32 32 32 32 32 32 31 30 29 28 27 27 26 26 26 25 25 25 24 24 24 24 24 23 23 23 23 23 23 22 22 22 22 22 22 22 22 22 23 23 23 22 22 22 22 22 22 22 22 22 22
32 25 24 32 34 33 34 32 27 29 34 34 33 34 31 26 24 24 23 23 22 21 22 22 22 22 24 27 30 31 33 33 32 32 32 32 32 32 32 32 32 31 30 29 28 27 27 26 26 26 25 25 25 25 24 24 24 24 23 23 23 23 23 23 23 23 22 22 22 22 22 22 23 23 23 23 22 22 22 22 22 22 22 22 22 22
33 27 23 29 33 31 29 30 29 29 31 31 29 29 29 28 27 26 25 24 23 22 21 22 21 22 27 32 32 31 33 33 33 33 32 32 32 32 32 32 31 31 30 30 29 28 27 26 26 26 26 26 25 25 25 24 24 24 23 23 23 23 23 23 23 23 23 22 22 23 23 22 23 23 23 23 22 22 22 22 22 22 22 22 22 22
31 29 24 25 27 26 28 33 34 33 33 32 29 28 28 27 25 24 23 24 24 22 22 22 21 23 29 33 32 31 32 33 34 33 33 33 32 32 32 32 31 31 31 30 29 28 27 26 26 26 26 26 26 25 25 25 24 24 24 24 23 23 23 23 23 23 23 23 23 23 23 22 23 23 23 23 22 22 22 22 22 22 22 22 22 22
32 31 26 24 26 29 31 34 34 34 35 34 33 31 30 29 25 22 21 22 23 23 23 23 21 24 30 33 32 32 32 33 34 33 33 33 32 32 32 32 31 31 30 31 29 28 27 27 27 26 26 27 26 26 25 25 25 24 24 24 24 23 23 23 23 23 23 23 23 23 23 22 23 23 23 23 22 22 22 22 22 22 22 22 22 22
30 30 26 23 27 31 33 34 34 35 35 32 32 33 32 30 27 26 25 24 23 22 23 23 21 24 31 33 33 33 33 33 33 33 34 33 32 32 32 31 31 30 30 31 30 28 27 27 27 27 27 27 27 26 25 25 25 25 24 24 24 24 23 23 23 23 23 23 23 23 23 22 23 23 23 22 22 22 22 22 22 22 22 22 22 21
28 28 26 23 23 26 27 28 29 31 31 30 31 33 32 30 30 28 27 26 23 22 23 22 21 23 30 33 33 33 34 33 32 32 34 33 32 32 32 31 31 30 30 30 30 28 27 28 28 27 27 28 27 27 26 25 25 25 24 25 24 24 24 24 23 23 23 23 23 23 23 22 22 22 22 22 22 22 22 22 23 22 22 22 22 21
28 28 27 23 21 22 22 23 24 26 28 29 30 31 31 31 30 27 25 23 22 22 23 22 21 24 30 32 32 32 34 33 33 33 33 33 32 32 31 31 31 30 29 30 30 28 27 28 28 28 28 28 28 27 26 25 25 25 25 25 25 24 24 24 24 24 23 23 23 23 23 23 23 22 22 22 22 22 22 22 22 22 22 22 22 21
30 29 28 25 23 23 23 24 27 28 26 26 27 29 29 30 30 28 25 22 23 23 22 23 23 24 27 31 31 31 32 32 32 33 33 32 32 32 31 30 30 30 29 30 30 29 28 28 28 28 28 28 29 28 27 26 26 26 25 25 25 25 24 24 24 24 24 24 23 23 23 23 23 22 22 22 22 22 22 22 22 22 22 22 22 21
29 26 27 27 26 27 28 28 30 29 27 26 26 28 29 30 30 28 24 24 25 23 21 24 26 24 25 31 32 30 30 30 31 32 32 32 31 31 31 30 30 30 30 30 30 29 29 28 28 29 28 28 29 29 27 26 26 26 26 25 25 25 24 24 24 24 24 24 23 23 23 23 23 23 23 22 22 22 23 23 22 22 22 22 22 21
28 25 27 28 27 29 31 31 30 30 29 28 28 28 28 29 29 27 25 27 27 23 22 25 26 25 27 31 31 30 31 31 30 31 31 31 31 29 30 30 30 29 29 30 30 30 29 29 28 29 29 28 29 29 28 27 26 27 26 25 25 25 24 24 24 24 24 24 24 23 23 23 23 23 23 22 22 22 23 23 22 22 22 22 21 21
27 26 28 29 26 28 30 31 31 31 29 29 29 29 29 28 29 28 27 29 28 26 26 26 25 26 29 31 31 31 31 31 31 31 31 32 31 30 29 30 30 29 29 29 30 30 29 29 29 28 28 28 29 29 28 27 27 27 26 26 25 25 25 24 24 24 24 24 24 23 23 23 23 23 23 23 23 23 23 23 22 22 22 22 21 21
26 25 28 28 24 25 28 29 30 30 28 27 28 29 29 28 28 28 28 29 28 26 28 27 25 27 30 31 31 32 32 31 31 31 31 31 32 31 30 30 30 30 30 30 30 30 29 29 29 29 28 28 28 29 29 28 27 27 27 26 26 25 25 25 24 24 24 24 24 24 24 23 23 23 23 23 23 23 23 23 22 22 22 21 21 20
26 25 27 26 22 22 26 28 28 28 27 25 26 28 28 27 27 27 27 28 27 26 27 25 24 27 30 31 31 31 31 31 30 31 31 30 31 30 30 30 30 30 31 31 31 30 29 29 29 29 28 28 28 29 29 28 28 27 27 27 26 26 25 25 24 24 24 24 24 24 24 24 24 24 23 23 23 23 23 23 22 22 22 21 20 20
27 25 25 24 22 22 25 27 27 26 24 23 23 25 27 27 28 28 28 29 29 28 26 24 25 28 30 30 30 31 30 29 28 29 29 29 30 30 29 30 29 29 30 31 31 31 29 29 29 28 28 28 29 29 29 29 28 28 27 27 27 26 26 25 25 24 24 24 24 24 24 24 24 24 24 24 23 23 23 23 22 22 21 20 19 19
26 25 24 24 22 21 24 26 26 23 22 22 24 26 27 27 28 27 27 28 28 27 26 26 26 28 29 29 30 30 29 28 28 28 28 29 29 29 29 29 29 29 29 29 30 30 30 29 29 28 28 28 29 29 29 29 29 28 28 27 27 27 26 26 25 25 24 24 25 25 24 24 24 24 24 24 23 23 23 23 22 21 20 19 19 19
25 24 25 24 22 21 23 24 22 21 22 23 26 27 27 27 28 27 26 25 25 24 25 25 26 27 27 28 29 30 29 28 28 28 28 28 28 28 28 28 29 29 28 28 29 29 30 29 28 28 28 28 29 29 29 29 29 28 28 28 27 27 27 26 25 25 25 25 25 25 25 25 25 25 24 24 24 24 23 22 22 20 19 19 19 18
26 24 24 24 23 22 22 22 21 21 23 25 26 27 27 26 26 26 25 23 23 23 23 24 24 24 25 26 27 29 30 29 27 27 27 28 27 28 28 28 28 28 28 29 29 29 29 29 28 28 28 28 29 29 29 29 29 28 28 28 28 27 27 27 26 26 25 25 25 25 25 25 25 25 25 25 24 24 23 22 20 19 19 18 18 17
28 26 25 23 23 23 21 21 22 22 22 23 24 25 26 26 25 25 23 22 22 23 22 22 22 22 22 23 25 27 28 28 27 26 26 27 27 27 28 28 28 28 28 28 29 28 29 29 29 29 29 28 29 29 29 29 29 28 28 28 28 28 28 27 27 26 26 25 25 26 26 26 26 25 25 25 25 24 22 21 19 19 19 18 18 17
25 24 23 22 22 23 22 21 22 21 21 22 22 22 25 26 25 24 23 22 21 22 22 21 21 20 20 21 23 24 26 27 27 25 26 27 27 27 28 28 28 28 28 28 28 28 28 29 29 29 29 29 28 28 28 29 28 28 28 28 28 28 28 28 28 27 26 26 26 26 26 26 26 26 26 25 25 24 22 20 19 19 18 18 17 17
20 20 21 21 21 21 21 21 21 21 20 20 20 21 24 26 25 24 22 21 21 20 20 20 19 19 19 19 21 22 24 26 26 25 25 26 26 26 27 27 27 27 27 27 26 26 27 28 28 28 28 28 27 27 28 28 28 28 28 28 28 28 28 28 28 28 27 27 26 26 26 26 26 26 26 25 24 23 21 19 19 18 18 18 17 16
20 20 20 21 20 20 21 21 21 21 20 19 20 22 23 24 25 23 21 20 20 19 18 18 19 19 19 19 21 22 22 23 24 24 25 26 26 26 26 26 25 25 26 26 25 25 26 27 27 27 27 27 27 27 27 28 29 28 28 28 28 28 28 28 28 28 28 27 27 26 26 26 26 26 25 24 23 21 20 19 19 18 18 17 16 15
21 20 20 20 21 21 21 21 21 21 19 19 20 22 23 24 24 22 19 19 18 17 18 19 20 22 20 19 19 20 20 21 21 23 25 26 26 26 26 26 26 25 25 25 25 25 26 26 26 26 25 25 24 23 23 26 28 28 27 28 27 27 28 28 28 28 28 28 27 27 27 26 26 26 25 23 22 20 19 19 19 18 17 16 15 15
19 19 19 20 21 21 21 21 21 20 19 19 21 22 22 22 21 19 19 18 18 17 18 19 20 22 21 20 18 18 18 19 19 20 22 24 25 25 26 26 26 25 25 25 25 25 25 24 25 25 24 24 23 21 22 25 27 27 27 27 27 27 28 28 28 28 28 28 27 27 26 26 25 25 23 21 21 20 19 18 18 17 16 15 14 14
18 18 18 19 19 20 20 20 20 19 18 20 21 20 20 19 18 18 19 19 19 19 19 20 20 20 20 20 20 18 17 18 18 17 18 19 20 22 23 25 25 25 25 25 25 25 25 24 24 24 23 24 24 23 24 25 26 26 26 25 25 26 26 26 27 26 25 25 24 24 24 23 23 23 21 20 20 19 17 17 16 16 15 15 14 13
17 17 18 18 17 18 19 19 18 18 18 19 19 18 18 18 18 18 19 19 19 19 19 19 19 19 19 20 21 20 19 19 19 18 17 17 17 17 19 21 23 24 24 25 25 25 25 24 24 23 23 23 24 24 24 24 24 23 23 23 23 24 24 24 24 24 23 22 22 22 22 22 22 22 21 19 17 16 16 16 15 15 14 13 13 13
17 18 18 17 16 16 16 16 16 16 17 18 18 17 17 17 17 17 17 18 18 18 18 18 18 19 19 19 19 20 20 20 20 19 19 18 18 17 17 18 21 23 23 23 23 23 24 25 24 23 23 23 23 23 23 23 23 22 22 22 22 22 21 21 21 21 21 21 21 21 21 21 20 20 19 18 16 16 16 15 14 13 13 12 13 12
19 19 19 17 16 15 15 15 15 15 15 15 16 16 16 17 17 17 16 17 17 18 18 18 18 18 18 18 18 18 19 19 20 20 20 19 18 18 18 18 20 21 22 22 21 21 23 24 24 23 23 22 22 23 23 23 22 21 21 22 21 21 21 20 20 20 20 20 20 20 20 19 19 18 18 17 16 16 15 14 13 13 12 12 12 12
19 19 19 18 16 16 15 15 15 14 14 14 14 14 15 15 16 16 16 16 17 17 17 18 18 18 18 18 17 17 18 18 19 19 20 19 18 18 18 18 18 19 20 21 21 21 22 23 22 22 22 21 21 21 21 21 21 20 20 21 21 21 21 21 20 20 20 19 19 19 19 19 18 17 17 16 16 15 14 13 13 12 12 12 12 12
19 19 19 19 18 16 15 15 15 15 15 14 13 13 13 14 14 15 15 15 16 17 17 17 18 18 18 18 18 17 17 17 18 18 18 18 18 18 18 17 18 18 18 19 20 20 21 21 21 21 21 20 20 20 20 19 19 19 19 19 20 20 20 20 20 19 19 19 19 18 18 18 17 16 15 14 14 14 13 13 12 12 12 13 12 13
19 18 18 19 18 15 15 16 17 16 16 16 15 13 13 13 13 14 14 14 15 16 16 17 17 17 18 18 18 17 17 17 17 17 17 17 17 17 17 17 17 17 18 18 19 19 20 20 20 20 20 19 18 18 18 18 18 18 18 18 18 18 18 18 18 18 18 18 17 16 16 16 15 15 14 14 13 13 13 13 13 13 13 13 13 13
19 17 18 19 17 16 16 16 16 16 16 16 16 15 15 14 14 14 14 14 14 15 15 16 16 17 17 17 17 17 17 17 17 17 17 17 17 16 17 17 17 17 18 18 19 19 19 19 19 19 19 18 18 17 17 18 17 17 17 17 17 17 17 17 17 17 16 16 16 15 14 14 14 14 14 13 13 13 13 13 13 13 13 13 13 13
18 17 18 18 16 16 17 18 17 17 17 17 17 17 16 16 15 15 15 15 14 14 15 15 15 15 16 16 17 18 17 18 18 19 18 18 17 17 18 18 18 18 19 19 19 19 19 19 19 19 19 19 18 18 18 18 17 17 17 17 17 17 17 17 17 16 16 16 15 14 14 14 14 14 14 13 12 12 12 12 12 12 13 13 13 13
Height
722 738 746 749 748 740 739 736 725 722 727 732 733 733 730 726 725 721 722 717 714 728 730 725 733 738 740 741 738 737 737 737 739 742 743 744 747 748 749 750 751 754 755 756 758 762 766 769 771 773 775 777 778 779 781 781 782 783 784 786 787 788 788 789 789 789 790 790 791 791 791 791 791 791 791 791 791 791 790 790 789 789 788 788 788 788
725 741 743 735 728 724 728 726 717 718 723 725 729 734 732 728 723 718 720 717 715 730 731 722 730 737 736 738 736 735 739 739 738 741 743 743 746 747 747 750 751 753 752 754 758 761 764 768 770 772 774 776 778 779 780 781 782 783 784 786 787 788 788 789 789 790 790 791 791 791 791 792 792 792 792 792 792 792 791 791 790 789 789 789 788 789
741 742 734 720 715 716 719 718 715 716 722 727 727 735 742 731 721 719 719 716 716 728 732 725 732 736 732 733 734 735 738 738 735 736 740 741 744 745 746 749 750 752 752 755 758 761 763 766 768 771 773 775 777 778 780 781 782 784 785 786 787 788 788 789 790 790 791 791 791 792 792 792 793 793 793 793 793 793 792 792 791 790 790 790 789 789
754 738 719 710 710 714 716 713 712 717 726 734 734 739 742 728 725 731 725 719 719 725 731 731 734 735 732 732 733 733 734 733 732 733 734 737 741 742 743 746 749 751 754 756 758 759 762 765 767 770 772 774 777 778 779 781 782 783 785 786 787 788 788 789 790 791 791 792 792 792 792 792 793 793 793 793 793 793 793 793 793 792 791 791 791 791
744 723 706 706 707 709 713 711 711 722 729 731 733 737 736 726 727 730 725 725 727 729 730 735 747 745 738 741 739 731 731 732 731 732 734 735 736 739 740 743 746 749 752 756 757 758 760 763 766 769 771 773 775 777 778 780 781 783 784 785 786 787 788 789 790 791 791 792 793 793 793 793 793 794 794 794 794 794 794 794 794 793 793 793 792 792
730 712 705 708 708 705 711 712 712 722 728 730 728 727 729 727 723 725 727 734 747 751 740 739 764 765 745 744 744 733 733 736 733 732 736 736 735 737 739 742 745 746 749 752 754 756 758 761 765 767 770 772 774 776 777 779 781 782 783 785 786 787 788 789 790 791 791 792 793 793 793 793 793 794 794 794 795 795 795 795 795 795 794 794 794 794
718 706 704 707 707 705 709 712 711 716 730 736 723 716 723 723 724 731 730 739 758 762 746 742 764 773 756 747 745 739 737 738 736 734 735 735 735 736 737 741 743 743 746 749 751 754 756 759 763 765 769 771 773 774 776 779 780 781 783 784 785 787 787 789 790 791 791 792 792 793 793 793 794 794 795 795 795 795 795 795 795 795 795 795 795 795
709 706 705 704 706 707 709 713 712 713 731 736 716 710 720 720 727 734 730 741 752 749 749 746 751 770 770 751 743 744 742 739 737 735 734 733 733 734 735 738 740 741 744 747 750 751 754 757 760 764 768 769 771 773 775 778 779 780 782 784 785 786 787 788 790 790 791 792 792 793 793 793 794 794 795 795 795 796 796 796 796 796 796 796 796 796
706 711 708 703 708 711 708 709 709 711 724 725 707 705 716 721 728 731 733 745 745 750 769 757 747 777 782 748 737 745 746 744 740 736 733 731 731 732 733 735 736 738 741 744 747 750 752 755 759 762 766 768 769 772 774 776 779 780 781 783 784 786 787 788 789 790 791 792 792 793 793 793 794 794 794 795 795 796 796 796 797 797 797 797 797 797
705 704 699 700 708 708 703 700 700 708 716 710 701 707 722 731 737 746 755 756 750 764 783 763 748 779 786 754 741 746 750 748 739 733 731 729 729 729 730 732 733 736 739 741 744 748 751 754 758 761 764 766 768 771 774 775 777 780 781 782 784 785 786 788 789 790 791 792 792 793 793 793 794 794 794 795 796 796 797 797 797 798 798 798 798 798
698 691 690 697 702 697 694 694 693 699 702 698 704 717 731 739 744 757 760 753 762 776 776 754 743 768 784 764 747 744 743 739 733 732 731 727 727 727 727 730 731 734 737 739 743 746 750 754 757 761 763 765 768 770 773 775 776 779 780 781 783 784 786 787 788 790 791 791 792 792 793 793 793 794 795 795 796 796 797 797 798 798 798 799 799 799
697 695 693 689 689 690 694 697 693 692 691 699 714 721 738 752 754 762 758 753 775 781 762 745 740 762 782 762 741 738 732 727 728 730 730 726 725 725 725 727 728 732 735 739 743 745 749 754 756 760 762 763 767 770 771 773 775 777 779 781 782 784 785 787 788 789 790 791 792 792 793 793 793 794 795 795 796 796 797 798 798 799 799 799 800 800
704 701 695 687 685 688 699 704 700 697 694 704 719 727 751 775 779 784 775 766 776 766 748 750 749 756 762 742 729 732 727 720 719 719 721 722 722 724 724 725 726 730 734 738 742 746 749 753 755 758 761 763 766 769 770 772 774 776 778 780 781 783 784 786 787 788 789 790 791 792 792 793 793 794 795 795 796 796 797 798 799 799 800 800 800 801
723 711 697 694 691 686 697 708 712 712 707 711 723 734 758 783 798 804 788 777 777 757 738 748 758 757 748 729 718 720 718 712 710 710 712 715 718 722 721 722 726 729 733 737 740 746 749 751 754 757 759 762 765 768 769 770 772 774 777 779 781 782 783 785 786 788 789 790 791 792 792 793 794 794 794 795 796 797 798 798 799 800 800 801 801 802
741 735 710 703 699 689 694 701 704 708 711 714 714 725 749 767 782 787 780 781 784 765 741 744 767 770 748 723 706 703 705 704 705 704 706 710 714 718 718 719 725 728 731 735 738 744 748 749 753 755 758 762 764 766 768 769 771 773 775 778 779 781 783 784 786 787 788 789 790 791 792 793 793 794 795 795 796 797 798 798 799 800 800 801 802 802
737 734 707 697 694 689 694 690 686 701 716 715 709 726 744 743 747 757 762 764 767 768 753 743 756 753 729 710 696 696 700 700 703 704 704 712 713 715 719 719 723 727 728 733 738 743 746 748 752 754 757 761 763 765 767 768 770 772 774 776 778 780 782 783 785 786 787 789 790 791 792 792 793 794 795 796 797 797 798 799 799 800 801 801 802 802
741 734 703 693 692 687 690 685 680 698 717 718 721 737 733 717 725 748 758 751 753 769 758 740 746 738 726 718 699 696 705 703 706 708 707 712 714 716 719 719 722 725 726 731 737 741 745 747 751 753 756 759 761 764 766 767 769 771 773 775 777 779 781 782 784 785 787 788 789 790 791 792 793 794 795 795 797 797 798 799 799 800 801 801 802 802
731 733 706 697 703 689 680 684 683 683 697 717 728 726 719 716 722 739 759 759 760 771 759 749 757 749 743 737 711 702 711 709 709 711 709 712 715 717 718 718 720 721 724 730 734 739 743 746 749 752 754 757 759 762 764 767 769 770 772 774 776 778 779 781 783 784 786 787 788 789 790 791 792 793 794 795 796 797 798 799 799 800 800 801 802 802
713 732 716 697 703 691 676 690 701 688 684 702 710 701 715 742 741 738 757 765 767 774 766 760 761 751 745 739 720 712 713 711 710 710 712 714 715 717 716 717 719 719 723 728 732 737 741 744 748 750 753 755 757 761 763 765 768 769 772 773 775 777 778 780 781 783 785 786 787 789 789 791 792 792 794 794 796 797 797 798 799 799 800 800 801 802
703 731 730 701 694 694 688 699 714 707 691 691 698 696 705 727 732 731 741 750 759 770 769 765 763 754 739 725 718 715 709 708 711 711 713 715 714 715 714 716 718 719 723 726 731 736 739 742 746 747 751 753 755 759 761 764 766 768 770 772 773 776 777 779 780 781 783 785 786 787 788 790 791 792 793 794 795 796 796 797 798 799 799 800 801 802
701 722 732 711 697 702 705 704 705 706 702 702 709 710 707 712 719 727 732 732 742 756 765 771 770 751 725 711 713 715 707 703 706 708 711 712 712 713 712 714 717 718 721 723 728 734 737 740 743 746 749 751 753 757 759 762 764 766 768 770 772 774 775 777 779 780 782 783 785 786 787 789 790 791 792 793 794 795 796 797 797 798 799 799 801 801
704 715 724 718 712 714 709 696 689 692 695 699 705 710 713 717 727 745 752 738 733 746 757 768 770 746 716 707 710 710 706 701 699 703 707 708 710 711 712 714 715 717 720 721 725 730 734 738 741 744 748 749 752 754 757 760 762 764 766 768 770 772 773 775 777 778 780 781 783 785 786 787 789 790 791 792 793 794 795 796 796 797 798 799 800 801
697 705 717 719 713 709 701 689 685 686 685 688 696 703 710 717 726 748 764 752 738 740 740 749 762 743 712 704 705 704 703 700 697 699 702 705 706 708 711 713 714 717 719 720 723 727 731 735 738 742 745 747 750 752 755 758 760 762 764 766 768 769 770 773 774 776 778 780 781 783 784 786 787 789 790 791 792 793 794 795 795 797 797 798 799 800
700 706 716 720 709 698 693 688 683 681 686 694 698 699 706 715 719 728 739 740 741 742 737 747 762 745 712 700 701 700 700 699 700 699 698 702 705 706 709 712 714 717 719 720 723 725 729 733 735 739 742 743 746 749 752 756 758 760 762 763 765 767 769 770 772 774 776 778 780 781 783 784 785 787 788 790 791 792 793 794 794 796 797 798 798 799
713 716 718 729 732 722 716 713 705 699 703 709 706 702 706 712 718 724 726 732 744 743 737 753 769 748 716 703 701 700 699 701 704 700 697 701 705 705 707 711 714 717 720 722 723 725 728 730 733 738 740 740 742 745 749 753 755 757 759 761 762 764 767 769 770 772 774 776 778 779 781 782 784 785 787 788 789 790 791 793 794 795 796 797 798 799
715 720 720 734 748 748 746 740 729 720 717 716 713 711 711 711 717 725 730 739 750 742 737 758 769 746 718 710 709 705 701 703 703 699 698 701 703 704 707 711 713 716 721 722 724 726 728 730 733 735 737 739 740 743 746 750 753 755 757 759 760 762 765 767 768 770 772 773 775 777 778 780 782 783 785 786 788 789 790 792 793 794 795 796 797 798
713 718 718 726 733 737 739 733 723 719 721 725 722 718 718 717 717 721 730 742 746 742 744 753 751 741 728 719 715 711 708 707 704 700 700 702 704 705 707 710 713 716 720 722 724 726 728 731 732 733 735 737 738 740 744 747 751 752 754 756 758 760 762 764 766 768 770 771 773 774 776 778 779 781 782 784 786 787 789 790 792 793 794 795 796 798
718 723 720 720 721 719 718 715 712 716 720 724 725 721 719 719 718 723 733 738 737 744 753 744 734 740 737 720 716 718 715 713 710 705 704 704 707 709 708 710 714 717 721 723 724 726 728 731 732 732 734 735 736 738 741 745 748 749 751 754 755 757 759 761 763 765 767 769 770 772 774 775 777 779 781 782 784 786 787 789 790 791 792 794 795 796
719 725 719 718 720 714 707 706 708 713 715 717 719 720 719 720 720 724 729 729 730 741 750 741 735 740 733 719 718 719 714 712 710 707 704 703 707 713 713 712 715 719 722 723 724 725 727 731 733 732 732 733 735 736 738 743 746 747 749 751 753 755 756 758 761 763 764 766 767 770 771 773 775 777 779 781 782 784 786 787 788 790 791 792 794 795
720 725 719 718 722 716 709 707 705 706 711 713 714 716 718 720 719 722 725 724 726 732 735 736 739 737 726 718 716 712 708 708 706 705 704 702 705 712 715 713 715 719 721 721 721 723 725 729 731 731 730 731 733 733 736 739 742 744 746 748 750 752 753 756 758 760 762 764 765 767 770 771 773 775 777 779 780 782 784 785 787 788 790 791 792 794
725 730 722 721 729 727 718 712 708 709 713 714 712 711 715 720 720 722 725 724 727 730 727 730 737 733 721 713 710 707 706 706 707 706 706 705 705 709 713 713 713 716 717 718 718 720 722 725 728 728 728 728 730 731 733 736 739 742 744 746 748 749 751 753 755 757 759 761 763 765 767 769 771 773 775 776 779 780 782 784 785 787 788 789 791 793
727 732 725 728 743 740 725 718 715 716 720 721 717 713 716 721 723 724 724 724 727 729 730 734 738 730 718 711 710 708 707 709 711 708 707 708 706 707 711 712 711 712 712 713 714 716 720 723 724 725 726 727 729 730 731 733 736 739 741 743 745 746 749 751 752 755 757 758 761 763 765 767 768 770 772 774 776 778 780 782 783 785 787 788 790 792
727 734 735 738 750 746 730 721 718 722 732 736 731 726 722 719 720 721 722 720 721 725 733 739 735 724 716 713 713 713 712 714 714 711 710 710 707 707 708 708 709 710 710 711 711 713 717 719 720 722 724 725 727 729 730 731 733 736 738 740 742 744 746 748 749 752 754 756 758 760 762 764 765 768 770 771 774 776 778 780 781 783 785 787 789 792
729 736 737 739 751 752 735 722 725 739 749 743 729 722 721 719 720 724 728 726 724 726 730 733 730 723 719 717 715 716 716 716 713 711 710 710 708 708 708 708 709 710 712 714 712 710 713 714 716 719 720 722 724 726 728 730 731 734 736 738 740 742 743 745 747 749 751 753 755 757 759 761 763 765 767 769 771 773 775 777 779 781 784 786 788 791
731 736 735 736 748 751 737 734 750 759 749 732 720 713 713 716 718 723 730 732 730 732 731 730 732 729 723 720 716 713 714 714 712 710 710 709 709 709 709 709 708 708 710 712 711 709 708 709 711 714 715 718 720 722 724 726 728 731 734 736 738 739 740 742 744 746 748 750 752 754 756 758 760 762 764 766 768 770 773 775 777 779 781 785 787 789
725 733 735 737 744 747 744 749 760 758 740 727 722 716 713 721 724 725 735 739 735 735 736 734 733 731 729 726 720 714 713 713 713 714 712 710 710 710 710 709 707 705 706 706 707 707 705 705 707 709 711 714 717 719 721 723 725 729 732 734 735 737 738 739 741 743 745 747 749 751 753 755 758 759 761 763 765 767 770 773 775 777 780 784 787 788
712 723 731 737 741 743 747 747 744 746 748 741 736 729 721 726 730 732 742 748 740 735 737 738 737 737 735 732 724 718 715 716 720 721 716 712 712 710 708 707 705 704 703 704 706 706 705 705 706 707 709 711 713 716 718 720 723 726 729 731 733 734 735 736 737 739 742 744 747 749 751 752 754 756 758 760 761 764 767 770 773 775 778 782 785 787
716 726 735 744 743 739 745 748 744 751 760 752 746 741 728 723 726 727 739 750 745 737 737 738 740 741 739 736 731 726 723 723 727 727 720 715 714 711 709 707 705 704 704 705 706 706 705 705 705 705 706 707 709 712 714 717 720 722 725 728 730 731 732 733 734 736 738 741 744 746 748 749 751 753 755 756 759 761 763 767 771 774 777 780 784 786
734 739 741 751 757 753 753 755 751 755 763 758 752 746 734 727 724 727 744 757 750 743 744 744 746 747 744 740 736 733 733 732 731 729 722 717 716 714 713 713 712 711 710 708 707 706 705 705 705 705 705 706 708 710 713 715 717 719 722 724 726 728 729 729 731 733 735 737 740 743 745 746 748 749 751 753 756 759 762 766 769 773 776 779 782 785
743 750 751 755 759 759 758 755 748 751 763 762 753 745 738 730 725 739 764 768 753 750 756 754 751 751 749 745 739 738 740 739 734 729 722 717 716 715 715 716 716 715 713 710 708 707 705 705 705 706 706 707 708 709 712 714 714 716 719 721 723 725 726 727 729 730 732 734 736 738 740 742 744 746 747 749 753 757 762 765 769 771 774 778 781 784
747 754 760 760 754 750 753 754 750 753 761 758 749 742 735 728 733 756 776 771 758 759 761 753 745 742 744 747 745 743 743 740 734 728 721 718 718 717 715 716 715 713 713 711 710 709 708 707 707 707 709 711 712 714 717 716 714 714 717 719 721 723 724 726 727 728 730 732 733 734 735 737 740 742 743 746 751 757 762 765 768 770 773 777 781 784
759 760 762 762 754 748 751 754 754 759 761 753 744 738 733 739 757 769 768 761 759 760 758 751 745 740 740 744 746 747 747 743 738 733 728 724 722 719 716 715 714 714 714 713 712 713 712 712 712 712 713 715 716 719 721 718 715 715 717 719 722 723 724 725 726 727 729 729 730 731 732 733 736 739 741 744 749 753 759 763 765 768 772 776 780 783
768 770 768 766 761 756 756 758 763 770 765 751 746 747 748 759 770 767 758 755 755 753 751 750 748 745 744 744 743 746 750 749 746 745 742 737 732 728 724 718 715 715 715 715 716 716 716 717 717 717 717 716 716 717 717 715 715 716 718 720 722 723 724 724 725 726 727 727 728 730 731 733 735 738 740 743 746 750 755 760 763 766 770 773 776 781
768 770 770 771 771 770 769 770 774 776 767 755 757 763 765 767 766 762 759 758 755 753 752 752 750 749 748 746 742 742 746 748 748 748 746 744 742 741 737 729 723 721 720 719 719 719 719 719 719 719 719 718 718 717 716 715 717 719 721 723 724 724 724 724 725 726 727 728 730 731 733 735 737 739 742 745 748 753 757 759 761 764 768 772 775 779
765 764 764 769 775 776 777 778 778 774 768 764 765 768 768 766 764 763 762 761 758 757 756 755 755 752 749 748 745 742 743 744 745 744 744 745 745 745 743 738 732 729 727 726 724 723 722 721 721 721 721 721 720 720 719 719 720 722 724 726 727 727 727 728 730 730 731 732 733 734 736 737 739 742 745 748 752 755 758 761 763 765 768 772 775 778
757 755 759 769 776 777 778 779 778 776 776 775 772 770 770 769 766 764 764 764 763 761 759 758 758 755 752 750 748 745 744 744 743 742 743 744 746 745 743 740 737 735 733 732 730 728 726 724 724 724 723 723 723 722 722 722 722 723 725 726 727 729 729 731 734 735 736 736 737 739 740 740 742 744 746 750 754 757 760 763 764 765 767 771 774 777
756 754 757 766 773 777 780 781 778 779 781 780 777 776 775 772 770 768 768 768 766 764 762 761 758 756 754 752 750 749 747 744 743 743 743 744 745 744 743 742 741 739 738 738 736 734 731 729 728 727 726 726 726 725 725 725 724 725 725 726 726 727 729 730 733 735 737 738 739 741 743 744 744 744 745 748 752 756 761 764 764 764 766 769 772 775
758 757 759 762 767 776 782 780 776 777 779 778 779 779 777 776 774 770 768 768 766 765 763 761 759 757 755 753 752 752 750 747 746 745 745 745 744 743 743 745 744 741 741 741 740 738 735 733 732 730 729 728 727 727 727 727 727 727 727 727 727 728 729 730 732 733 735 736 737 739 741 743 744 744 744 745 748 753 759 762 764 764 765 767 770 773
757 761 762 761 767 777 782 777 774 776 776 775 776 778 777 776 774 772 769 768 766 765 764 761 759 758 756 755 754 753 751 750 748 747 747 747 745 743 743 745 746 744 743 743 741 739 737 736 736 734 732 731 729 728 727 727 727 728 727 728 729 730 731 732 732 733 734 735 736 738 739 741 743 744 746 748 750 753 757 761 763 764 766 768 771 772
761 768 767 764 771 779 780 776 775 777 777 775 775 776 775 774 773 773 771 769 768 767 765 763 761 759 757 757 756 755 753 751 748 748 748 747 745 744 742 743 744 744 743 742 741 739 737 737 737 736 734 733 731 730 729 727 727 727 728 729 730 731 732 733 733 734 735 737 738 739 740 742 744 746 748 749 750 752 756 760 762 764 766 768 771 772
766 771 768 769 776 777 773 771 773 775 776 773 772 773 773 772 772 772 771 769 769 767 766 766 765 762 760 758 757 756 754 751 748 747 746 745 745 743 741 741 742 743 742 741 740 738 737 736 736 736 734 732 732 732 730 729 727 727 728 729 730 731 732 732 733 735 736 737 738 739 741 743 745 747 748 749 750 752 755 758 761 763 765 768 770 772
Wind_Speed
5 4 2 3 8 9 11 15 9 5 7 2 4 5 3 2 4 9 9 8 6 2 2 8 11 11 12 12 11 11 10 9 10 10 9 10 8 8 8 8 10 9 9 12 13 16 15 13 13 12 12 11 10 11 11 10 9 8 8 7 6 5 4 3 4 5 5 6 5 6 6 6 6 7 7 8 8 8 9 9 9 9 10 14 16 15
6 4 5 10 11 8 12 17 12 6 8 4 1 4 5 3 4 9 8 8 7 3 2 7 10 10 11 12 11 11 10 8 10 10 9 11 10 8 9 9 10 8 9 12 12 13 16 15 13 12 12 11 11 11 11 10 9 8 8 8 7 6 5 4 5 5 5 5 5 6 7 7 7 7 7 8 8 8 8 8 8 10 10 13 15 14
5 6 11 12 9 9 12 15 13 5 2 3 3 4 6 3 4 10 7 6 7 3 2 5 6 8 10 11 11 11 9 8 9 10 9 10 10 9 9 9 9 8 9 12 10 11 15 16 14 13 12 12 11 11 11 10 10 9 8 8 7 6 6 5 5 5 5 5 5 6 6 6 7 7 7 8 8 8 8 8 9 11 11 11 13 13
6 7 11 9 8 11 9 8 7 1 5 5 4 3 4 2 1 4 6 7 5 2 3 4 1 4 8 9 10 10 9 8 9 10 10 10 9 9 10 9 9 9 9 12 11 10 13 15 14 13 13 13 12 11 12 12 11 10 9 9 8 7 6 6 5 5 5 5 5 6 6 6 7 7 7 8 8 8 8 9 8 9 10 10 12 13
11 10 9 8 8 8 7 5 3 1 2 2 2 5 5 3 2 1 6 7 6 6 3 3 3 1 2 4 7 10 9 8 10 10 9 10 9 8 10 10 10 10 10 11 11 10 11 13 14 14 14 14 13 12 13 13 12 11 10 10 9 8 7 6 6 5 5 5 5 6 6 6 6 6 6 7 8 8 7 8 8 8 8 8 10 11
10 12 12 11 8 6 7 3 4 2 1 3 6 6 9 9 4 6 10 8 4 2 1 4 4 2 1 3 3 6 9 8 8 10 9 9 10 9 9 10 10 11 11 10 11 10 11 13 14 15 15 14 13 13 14 14 12 11 12 11 9 8 7 7 7 6 5 5 5 5 5 5 5 6 6 6 7 7 7 7 7 7 7 7 8 8
7 11 12 9 8 6 7 2 6 3 1 2 3 7 13 9 2 6 9 7 0 3 2 4 3 2 3 4 2 4 7 9 8 10 10 9 10 9 9 10 9 10 10 9 10 10 10 13 14 14 16 15 13 14 14 14 12 13 13 12 10 9 7 7 7 6 5 5 4 5 5 5 5 7 7 7 7 7 7 7 7 7 6 6 6 6
5 9 9 5 7 7 5 2 6 4 2 2 5 8 9 5 5 4 6 6 2 3 3 3 3 1 3 5 5 4 6 8 10 10 10 10 10 10 10 12 11 10 11 9 9 10 10 13 14 15 16 15 14 15 15 14 13 14 14 12 11 9 8 7 7 6 5 5 4 5 5 5 6 7 7 7 7 7 7 7 7 7 6 6 5 5
5 10 10 6 6 5 0 6 9 8 4 2 8 7 3 2 2 3 3 3 2 2 2 4 5 1 2 5 9 7 3 6 10 10 10 10 10 11 11 12 12 12 12 11 10 9 10 13 15 17 17 16 16 16 16 15 14 15 15 13 11 10 9 8 8 7 6 5 5 4 5 6 6 6 8 8 7 6 7 7 7 6 6 5 5 5
7 11 10 7 5 3 2 8 12 12 7 4 8 1 5 5 7 10 3 2 2 4 2 9 7 2 1 3 6 9 7 8 10 9 9 9 10 11 11 12 12 12 11 11 10 10 10 13 17 19 18 17 17 17 16 16 15 15 15 14 12 11 9 9 8 8 7 6 5 4 4 6 7 6 7 8 7 6 7 7 6 6 6 6 5 4
8 9 5 4 7 6 5 2 8 9 8 6 5 3 6 4 7 6 3 2 2 2 5 10 8 5 2 3 4 6 8 10 8 7 9 11 12 12 10 12 13 12 10 11 11 11 12 14 18 20 17 16 19 18 17 16 15 15 15 14 13 11 10 10 9 8 8 7 6 5 4 5 7 7 7 8 7 7 7 7 7 6 6 5 5 4
10 10 6 5 6 4 5 3 4 6 6 3 0 4 5 3 5 2 3 0 0 2 4 8 8 4 2 4 7 9 11 13 11 10 12 12 13 12 10 12 13 12 11 12 11 12 12 12 16 18 16 16 20 18 17 17 16 16 15 15 14 12 11 11 10 9 8 7 6 6 4 4 6 7 7 8 8 8 7 7 7 6 6 5 4 4
8 8 7 4 5 3 7 6 5 5 5 3 3 5 5 2 3 1 3 1 2 4 4 9 7 2 2 6 13 15 16 15 12 11 13 13 13 12 11 12 12 11 12 12 10 11 11 10 12 15 15 17 18 17 17 18 18 17 16 16 15 13 12 12 11 10 9 8 7 6 5 5 4 6 8 8 8 8 7 7 7 6 6 5 4 4
4 10 13 7 6 6 7 6 2 3 4 1 5 4 3 2 1 1 3 3 3 5 2 9 10 4 2 5 14 17 16 15 12 11 13 13 13 12 11 13 13 11 12 11 11 12 10 10 12 14 16 17 17 17 17 17 18 17 17 17 15 14 13 12 12 11 10 8 7 7 6 6 5 5 7 8 8 8 6 6 6 6 5 4 4 4
5 7 7 7 1 5 7 8 4 1 3 1 6 6 5 5 3 2 1 2 2 5 3 6 8 5 1 2 10 14 13 13 11 10 13 13 13 12 11 13 13 12 13 11 12 13 11 12 14 15 16 17 17 18 17 17 18 17 18 18 16 15 14 13 12 12 11 9 8 7 6 7 7 6 6 7 8 7 6 6 6 5 4 4 4 4
8 5 4 9 7 2 6 8 4 1 2 3 5 6 4 5 5 1 1 4 3 4 5 1 4 3 3 3 6 11 10 12 10 8 13 14 14 12 11 13 13 11 12 12 13 13 12 13 15 16 17 17 17 18 17 17 17 17 18 18 17 16 15 14 13 12 11 10 9 8 7 7 8 8 7 7 7 6 6 5 5 5 4 3 3 3
4 6 7 10 8 7 9 7 5 4 3 2 2 3 3 6 5 1 1 5 4 4 3 2 3 2 4 4 5 10 9 12 12 8 12 15 14 12 11 12 12 11 12 13 14 13 12 13 15 17 18 18 18 18 18 18 18 17 18 18 18 17 16 15 14 13 12 11 10 9 8 8 9 9 8 8 7 6 5 5 5 5 4 2 3 2
2 6 7 9 9 9 8 7 8 6 5 4 2 5 3 4 4 1 0 2 3 3 1 3 2 3 1 1 4 9 9 11 12 10 11 14 13 12 11 11 12 12 13 15 15 14 13 13 15 18 18 19 19 19 19 18 18 18 18 19 18 18 18 16 15 14 12 11 11 10 9 9 9 9 9 9 8 7 5 5 4 4 3 2 2 1
3 5 5 8 12 9 6 4 8 7 5 5 5 5 4 1 3 3 1 2 2 2 1 5 5 3 2 1 3 7 10 10 11 11 11 12 12 11 11 12 11 11 12 14 15 14 13 13 16 18 19 20 20 20 20 20 19 18 18 19 19 18 18 17 16 15 13 12 11 10 10 10 10 10 9 9 9 7 6 6 5 4 3 2 1 0
5 4 4 6 10 8 4 4 6 6 7 7 6 6 6 4 2 2 2 2 2 2 2 4 7 3 3 3 6 6 8 9 11 12 11 11 10 9 10 11 10 10 10 12 15 14 13 13 17 19 19 20 21 21 21 21 20 20 19 19 19 18 17 17 17 16 15 13 12 11 11 11 11 11 11 10 9 7 7 6 6 5 5 3 2 1
4 5 3 4 8 10 4 4 6 5 5 6 6 7 5 2 2 1 1 2 3 2 2 1 3 2 2 3 4 3 4 7 10 11 10 11 11 9 9 8 8 9 9 11 13 14 13 13 16 19 19 20 21 20 21 21 21 21 20 20 19 19 18 18 18 17 16 15 13 12 13 13 12 12 11 11 10 8 8 8 7 6 6 5 4 2
4 4 5 4 6 7 4 4 8 7 7 6 4 3 2 1 2 1 2 2 2 2 2 1 1 2 2 2 2 1 3 6 9 12 11 11 12 10 9 8 7 8 8 9 12 14 13 12 15 19 19 20 20 20 21 21 21 21 21 20 21 20 20 19 19 18 17 16 15 14 14 14 14 13 12 11 11 10 10 9 9 8 7 5 4 3
4 4 6 6 5 7 8 11 12 10 10 9 4 1 2 2 4 3 1 2 1 1 2 2 1 1 1 3 4 1 3 2 3 8 11 12 11 11 11 9 8 9 8 7 10 14 13 12 17 19 18 19 20 20 21 21 21 21 21 21 21 21 21 21 20 19 18 18 17 16 15 15 15 15 14 13 12 12 11 10 10 9 7 6 5 4
6 4 6 6 6 7 8 12 12 8 8 8 5 2 1 1 1 2 2 1 2 3 2 3 1 2 1 2 4 4 2 2 1 6 8 10 10 10 13 11 8 9 9 6 7 12 13 14 17 18 17 19 20 20 21 22 21 21 22 22 22 23 23 22 21 20 19 19 18 17 17 16 17 16 16 15 14 13 13 12 11 10 8 8 6 5
3 4 5 5 6 6 5 7 7 4 5 6 5 4 3 5 5 4 2 1 1 2 4 3 1 1 1 3 2 4 5 5 6 8 6 8 9 10 11 11 9 9 9 8 7 11 14 13 14 15 16 18 20 21 22 22 21 21 22 22 22 23 23 22 22 21 20 21 20 19 19 18 18 18 17 16 15 15 14 13 12 10 9 8 6 6
2 4 5 5 6 6 4 3 3 2 4 5 7 7 6 5 2 1 1 2 2 3 4 2 1 3 2 4 6 5 5 6 7 5 7 8 7 8 10 9 9 10 9 9 9 10 13 11 11 14 16 17 18 20 22 22 21 21 22 23 22 23 24 22 22 22 21 22 21 20 21 20 20 20 19 18 17 16 15 14 12 10 9 8 7 7
3 5 6 7 8 6 3 1 1 2 3 5 9 9 6 6 5 3 4 2 1 4 2 5 4 3 4 3 4 5 4 2 3 3 5 7 4 5 11 10 8 9 8 8 8 9 11 11 11 13 15 17 18 19 22 22 22 22 22 23 22 23 25 23 22 23 22 22 23 22 22 22 22 21 20 19 18 16 15 15 13 11 10 9 8 9
4 6 7 11 12 11 10 6 6 3 5 6 9 9 4 5 5 3 4 2 2 1 1 3 3 1 6 7 2 2 4 5 5 7 1 7 4 2 7 12 10 9 6 6 7 8 10 10 10 10 13 16 17 19 22 22 22 22 22 24 24 23 25 25 24 24 23 23 24 23 23 23 22 21 20 19 18 17 16 15 14 13 11 10 10 10
5 6 7 11 13 15 17 11 8 8 8 8 9 9 6 7 6 4 5 5 4 3 1 4 3 4 7 8 4 4 1 2 3 6 6 3 6 5 6 10 11 10 8 9 8 7 8 8 8 9 12 15 16 17 21 22 22 22 22 24 24 23 25 26 25 24 23 23 24 24 23 23 23 21 20 19 19 18 17 15 14 13 12 11 12 12
4 3 5 10 12 14 16 14 11 11 10 10 10 9 5 7 6 5 6 6 6 5 1 3 4 7 6 6 5 3 1 1 1 2 4 3 3 7 10 9 11 12 12 11 10 9 9 9 9 9 9 14 16 16 19 22 21 22 22 24 25 24 24 26 25 24 23 23 23 24 23 23 23 22 21 20 19 18 17 16 14 13 12 13 14 14
3 3 5 7 8 11 15 16 15 13 11 11 11 10 6 6 5 4 5 5 6 7 3 3 7 6 4 3 3 1 2 0 4 4 1 5 5 3 8 10 13 15 14 12 10 11 10 9 9 9 9 13 17 17 18 20 21 22 23 23 25 25 24 25 25 25 24 23 23 24 23 23 23 22 21 21 20 18 17 16 15 14 13 15 16 17
3 4 5 4 5 8 14 17 15 10 11 11 6 6 7 6 4 4 5 5 5 5 2 3 5 4 3 3 3 3 1 2 2 1 1 3 5 3 1 5 6 8 10 12 12 12 12 10 10 10 10 13 17 17 17 19 20 21 23 23 24 25 24 24 25 25 25 24 23 24 24 23 23 22 21 21 20 18 17 16 16 16 15 17 19 18
2 1 2 3 4 6 12 17 14 9 8 6 3 3 4 7 6 3 5 6 4 2 1 2 4 4 5 5 4 4 2 6 7 5 3 2 2 4 4 3 1 5 6 7 9 11 14 12 11 12 13 15 17 18 18 19 20 20 23 24 24 25 25 25 25 25 25 24 24 24 24 24 23 22 21 20 19 18 17 17 17 17 17 19 20 19
2 2 2 2 2 6 11 13 10 8 7 3 1 4 8 6 6 5 4 4 4 5 6 5 5 5 6 7 6 4 2 7 7 6 5 4 2 3 3 1 2 4 7 8 6 10 12 11 12 16 18 18 18 20 20 20 20 21 22 23 23 24 25 25 25 25 25 25 24 24 25 24 23 22 22 21 20 19 18 18 18 18 19 21 21 21
5 4 3 3 1 5 9 9 8 6 3 2 1 3 7 8 3 3 0 6 9 10 10 9 7 7 9 10 9 6 2 7 8 7 7 6 5 4 4 3 2 2 3 3 4 8 12 13 15 19 22 22 22 23 22 21 21 21 21 22 23 24 24 24 25 24 24 25 25 24 25 24 23 23 23 22 21 20 19 18 19 21 22 23 22 22
6 5 3 2 3 5 5 5 6 2 3 4 5 6 6 6 4 1 3 8 11 10 10 8 8 10 12 14 12 8 2 6 9 8 7 7 6 6 5 4 4 5 4 3 2 2 6 12 17 20 22 23 23 21 21 21 22 21 21 22 23 23 23 24 24 24 24 24 24 24 25 24 24 24 24 23 23 21 19 19 22 24 24 23 22 23
9 7 4 3 5 5 5 6 4 2 2 1 4 8 6 4 4 2 4 6 8 9 7 7 9 10 11 13 14 11 7 0 5 7 8 8 7 7 6 5 5 6 7 6 4 3 3 9 17 21 21 21 21 20 19 21 22 22 21 21 21 22 23 23 23 24 25 24 24 24 24 24 24 24 23 23 23 22 21 23 26 26 25 25 24 24
3 2 1 1 2 4 5 6 4 2 1 2 5 9 11 7 6 5 4 4 5 9 8 6 7 10 11 12 13 11 10 6 3 4 7 7 7 8 7 6 6 4 6 8 8 5 2 4 12 19 19 17 19 20 21 21 22 23 21 21 21 21 22 22 22 22 23 24 23 23 23 23 23 23 24 23 21 22 24 27 28 27 26 26 25 24
12 7 4 3 0 3 5 6 5 4 1 6 9 10 13 10 5 5 3 0 3 9 11 7 5 5 8 11 11 7 5 4 1 4 6 6 7 7 7 6 7 5 4 7 11 10 7 4 3 11 14 15 18 22 23 21 22 22 21 21 21 21 20 21 22 21 22 24 24 23 22 22 22 23 23 20 18 21 27 29 28 27 26 25 25 24
10 4 1 1 3 2 4 5 4 1 3 7 11 10 11 12 6 3 1 2 5 8 8 6 2 3 2 6 10 5 2 2 3 4 4 5 6 7 8 8 8 7 7 8 10 12 11 8 4 1 6 9 12 16 18 19 21 21 20 20 20 20 20 20 21 21 21 21 24 25 24 24 24 23 19 18 19 22 27 28 27 27 27 25 25 24
5 3 1 3 4 3 3 3 2 2 3 8 13 11 12 11 5 1 0 2 5 8 9 7 3 5 7 2 5 6 4 5 6 5 4 5 6 6 8 10 10 11 11 10 9 9 10 10 9 5 3 4 6 9 14 17 17 17 18 17 16 16 17 16 17 18 19 20 23 26 27 28 29 24 18 20 22 23 26 27 27 28 27 26 25 25
3 1 1 3 3 2 1 3 2 2 4 11 12 11 12 6 1 2 3 4 2 5 8 7 9 11 8 6 4 3 7 11 13 13 12 9 7 6 7 8 10 11 12 12 13 11 10 10 11 10 8 6 2 6 12 15 13 12 14 12 10 11 13 14 15 14 14 15 14 13 15 19 21 20 21 25 27 28 28 28 28 29 29 29 28 27
1 2 2 3 4 2 1 2 3 1 6 14 11 9 10 6 3 6 5 2 1 3 6 7 11 13 13 8 6 7 1 5 8 12 15 16 14 13 11 9 10 10 11 12 12 12 10 9 10 9 8 9 9 7 3 3 2 3 5 5 4 2 1 5 7 4 5 8 12 15 17 19 20 22 26 29 32 32 31 31 31 32 33 33 31 28
0 2 1 1 3 3 2 0 1 2 7 13 10 7 8 8 7 9 8 5 6 8 8 9 11 12 13 13 9 6 5 2 3 6 8 12 14 14 14 12 12 13 14 13 12 12 11 10 10 9 9 9 10 11 12 12 13 15 15 13 12 12 13 12 11 14 17 18 20 21 21 20 20 22 25 28 30 31 31 32 33 33 33 32 31 29
1 2 3 1 1 2 2 3 4 5 8 11 10 9 10 11 11 11 11 9 9 10 9 8 10 12 12 13 13 11 10 9 9 8 7 7 8 8 10 12 15 17 17 16 17 17 11 9 11 11 11 11 11 11 12 13 15 16 14 11 11 13 15 15 15 16 17 17 17 18 19 19 20 21 23 24 26 30 31 32 31 29 29 29 29 28
3 3 3 1 4 5 4 5 5 7 9 10 10 11 11 12 11 12 11 10 10 10 10 9 9 11 12 11 11 11 11 13 12 10 9 8 7 8 10 12 16 20 19 17 18 20 14 9 10 9 10 10 10 10 10 10 12 13 11 8 8 9 11 11 11 11 12 14 15 15 16 18 19 20 22 22 25 27 28 29 29 29 29 28 27 24
5 5 3 2 4 3 2 5 4 4 6 7 7 8 10 10 10 10 9 8 9 10 10 11 11 10 10 10 10 10 11 12 12 11 10 9 8 9 10 11 13 18 20 18 17 18 15 10 8 7 6 7 7 7 7 8 9 10 10 11 12 12 13 11 9 8 10 12 13 13 15 18 20 22 24 26 27 26 24 25 28 29 29 27 24 21
4 6 4 3 2 1 3 4 2 2 3 5 4 4 5 6 8 9 8 8 9 10 10 11 12 11 10 10 9 9 10 10 10 10 9 7 7 7 8 10 13 16 19 20 18 16 15 11 9 7 5 3 4 5 5 5 6 7 8 11 12 14 13 9 9 13 17 17 18 19 20 22 24 25 26 27 27 25 23 23 25 27 26 26 24 22
3 4 5 4 2 5 5 3 2 2 3 4 4 1 2 4 5 7 8 8 9 10 11 12 11 11 11 11 10 9 9 9 8 8 8 6 4 3 3 5 9 11 13 16 16 15 14 12 11 10 7 4 3 2 2 4 4 4 6 8 10 10 10 12 15 17 20 20 20 21 23 24 24 24 24 24 23 22 21 21 22 22 21 21 21 22
3 4 6 5 2 4 3 3 4 1 1 4 4 2 3 4 5 6 7 6 6 7 9 10 11 12 13 13 11 9 8 9 8 8 7 6 6 6 5 7 10 11 12 15 15 12 12 13 12 11 9 7 5 4 2 2 3 3 4 5 7 6 7 11 13 13 14 16 16 18 21 21 21 21 22 23 23 23 21 20 19 18 18 19 20 20
5 4 5 4 4 4 4 3 4 2 2 2 2 2 3 3 4 6 7 7 6 6 6 6 8 10 12 13 14 11 8 9 10 8 7 6 7 9 9 7 8 10 12 14 12 10 12 13 12 11 10 8 6 5 5 4 3 3 3 5 6 6 7 10 10 10 12 13 13 17 20 19 19 20 20 21 24 25 23 20 17 14 16 19 19 18
Wind_Direction
271 231 228 264 240 221 224 242 251 223 206 240 329 274 245 126 114 107 126 162 165 174 156 131 127 139 151 154 166 169 176 193 163 157 169 153 158 163 157 157 141 136 143 146 142 137 146 154 147 148 151 155 154 150 151 148 144 143 137 134 133 127 123 107 90 90 87 86 90 96 94 92 89 86 82 73 69 64 59 63 55 55 81 81 68 63
313 263 267 259 248 227 219 238 252 229 204 199 285 295 320 353 122 119 133 155 129 100 156 137 133 146 153 154 164 168 175 190 165 164 175 156 159 166 161 158 143 147 154 138 129 132 140 149 152 152 156 160 157 155 156 152 150 148 142 138 136 134 129 109 98 95 81 73 81 90 89 88 82 78 83 80 77 74 65 59 42 39 66 82 74 64
299 270 270 255 243 240 220 226 244 252 28 29 32 350 324 308 122 116 130 155 142 154 161 127 137 148 154 158 161 169 178 189 177 172 172 162 166 169 163 159 150 155 150 135 136 142 143 151 157 156 159 162 161 159 158 158 155 151 147 142 140 140 135 124 115 108 97 83 78 87 89 92 91 86 89 87 83 81 73 65 48 39 52 70 74 68
256 266 264 245 231 246 227 208 236 259 66 48 26 321 273 267 56 116 143 143 121 34 52 95 149 159 149 157 162 173 181 185 185 177 172 173 175 171 163 159 159 158 144 140 151 152 150 158 160 157 159 161 164 163 162 163 159 156 155 148 145 142 137 131 123 113 108 101 92 94 93 96 102 101 97 94 88 82 78 74 61 53 54 52 59 66
253 275 268 242 229 248 254 215 206 31 82 139 191 261 282 284 266 162 110 103 68 25 38 136 203 198 119 167 175 176 183 188 185 178 177 177 171 174 166 157 162 160 148 151 158 157 156 161 163 161 160 161 167 169 165 166 164 160 157 152 149 145 140 137 131 125 120 114 111 111 109 106 106 102 96 95 93 85 81 79 70 66 62 50 53 61
254 276 266 256 244 236 265 243 116 52 313 195 197 222 260 260 221 112 100 91 56 44 253 246 227 187 225 257 237 185 181 186 188 179 180 178 170 179 169 154 164 163 157 159 158 164 164 158 162 163 161 165 171 171 166 167 167 159 156 154 150 147 144 141 140 138 134 129 128 130 127 122 115 104 94 91 93 91 88 86 78 73 66 62 67 64
239 248 242 259 275 246 247 236 94 79 296 293 249 208 223 236 82 104 127 114 123 181 147 309 282 213 213 227 288 266 201 180 187 184 179 180 174 182 169 153 170 168 157 160 158 166 164 154 162 163 161 169 173 168 164 166 167 158 154 156 151 150 148 147 148 143 138 133 131 129 121 118 115 109 102 95 96 98 97 94 87 84 75 70 73 70
260 253 236 243 277 274 258 196 99 118 195 304 274 238 224 193 127 178 161 118 175 192 92 354 287 224 232 209 187 257 246 186 187 190 182 184 177 179 168 157 176 171 154 162 164 163 157 154 164 161 161 173 172 164 162 164 166 158 155 157 153 151 152 152 152 146 139 134 130 125 119 118 115 117 121 113 103 99 98 97 93 89 85 76 71 70
287 272 265 259 257 275 349 121 131 165 192 281 252 249 305 326 119 109 84 91 149 113 84 260 250 207 276 225 177 176 241 214 200 194 186 185 177 177 172 166 172 163 155 165 165 158 152 156 163 160 165 176 167 160 163 164 164 158 157 158 154 154 157 156 155 153 148 142 141 140 136 131 122 122 127 116 104 102 99 98 96 94 92 88 80 73
257 253 272 308 282 277 98 137 159 180 189 246 257 209 55 351 36 64 36 284 126 103 216 242 227 181 272 252 179 164 190 222 207 190 188 187 184 180 172 170 163 153 160 164 156 152 151 156 157 157 170 174 160 159 165 163 161 160 159 160 156 157 161 159 160 160 154 150 147 146 145 136 126 118 116 112 110 113 112 106 104 105 103 99 96 88
248 229 240 287 272 307 350 159 172 198 206 213 242 104 92 15 52 85 244 263 101 122 234 226 197 175 209 216 211 192 195 210 195 181 196 192 185 178 167 166 157 154 163 153 148 153 151 153 150 155 175 169 152 160 166 161 161 161 161 161 160 162 164 163 166 164 157 158 153 146 146 132 127 126 122 124 126 122 119 113 109 110 109 107 105 100
246 224 214 214 228 293 306 244 186 236 241 187 98 69 86 25 49 94 269 83 202 274 198 187 174 165 221 194 203 221 213 206 198 191 196 191 179 168 166 165 155 156 155 145 153 155 147 151 148 158 176 160 149 163 168 163 164 162 161 163 163 166 168 165 168 167 161 164 158 148 147 123 124 132 131 130 130 126 122 119 118 117 116 117 112 105
261 268 283 222 178 239 261 236 175 213 247 162 109 58 69 29 27 2 297 341 259 273 138 152 178 191 278 199 191 208 210 200 201 192 182 184 172 160 169 164 152 152 149 149 156 147 146 155 152 164 171 152 151 169 173 166 163 162 162 165 167 170 170 168 170 170 166 167 160 153 150 133 127 134 132 129 126 124 126 128 130 128 124 124 122 110
305 302 292 251 177 187 244 268 185 179 280 230 127 98 96 100 47 240 278 319 294 291 118 156 201 243 299 193 174 184 190 182 194 189 170 173 161 154 171 162 150 152 151 154 152 143 153 160 156 167 164 153 158 173 177 168 161 161 162 166 170 171 172 172 170 170 170 169 163 159 154 146 144 137 130 132 128 126 130 129 125 128 128 126 119 109
272 286 291 286 261 157 205 256 275 176 275 286 127 142 140 143 209 231 186 234 249 294 305 172 207 245 295 145 139 151 161 160 176 175 158 159 151 154 171 159 152 158 155 156 150 146 159 160 161 166 159 157 167 175 179 170 162 162 162 167 172 171 174 176 173 172 172 172 167 163 159 151 152 148 133 131 131 132 134 129 127 125 114 106 100 87
275 277 255 265 269 225 231 239 236 188 271 3 91 127 129 154 215 270 140 223 231 261 275 176 176 224 305 341 124 137 143 140 143 148 148 151 151 161 172 159 155 162 160 155 147 150 159 158 162 163 158 162 171 176 178 172 168 166 164 170 174 173 176 177 174 175 174 173 170 167 166 160 157 158 151 142 142 146 141 136 135 124 106 97 92 73
273 280 264 259 237 228 264 259 222 196 181 28 60 154 205 206 203 100 169 224 251 259 265 80 131 197 326 319 153 139 138 137 132 144 154 148 152 168 171 160 160 165 162 153 148 153 158 159 163 165 164 167 171 177 180 175 173 171 169 173 175 174 176 178 177 177 176 175 172 172 172 168 164 163 161 157 158 158 145 136 129 122 118 106 88 71
204 272 278 288 275 243 249 281 278 243 151 130 190 174 195 234 206 143 294 238 257 277 341 79 153 211 220 260 155 139 146 147 138 148 158 146 152 173 169 157 164 167 157 149 151 156 156 160 167 168 172 173 172 177 179 178 177 175 174 175 177 177 176 179 179 177 178 177 175 178 177 173 172 170 167 164 164 163 154 146 138 132 137 118 90 56
178 277 258 250 272 259 197 228 274 258 180 186 221 180 151 220 212 180 196 302 303 315 349 130 149 238 249 213 212 169 152 151 146 146 153 150 157 174 166 157 163 159 147 147 154 157 156 163 170 171 174 175 174 177 178 179 178 178 179 177 179 182 178 178 180 178 180 180 178 181 181 178 176 175 174 169 168 169 166 163 158 156 166 173 183 69
179 242 258 238 271 278 202 199 248 238 209 212 233 224 184 162 196 183 165 260 273 292 292 132 135 214 251 207 232 210 150 154 157 149 153 154 161 175 163 159 162 150 146 153 155 158 158 164 170 172 176 177 176 178 179 179 179 179 180 180 181 183 180 181 182 179 180 182 183 183 181 181 181 182 182 176 174 176 176 177 177 180 189 194 200 173
194 202 244 250 262 269 241 212 247 249 217 199 209 244 243 154 136 128 158 245 268 274 309 58 133 188 232 202 230 227 157 167 160 153 157 154 162 175 158 154 158 148 152 155 152 156 157 161 167 170 177 179 176 180 180 178 181 180 179 182 182 182 182 184 183 182 182 184 185 185 183 183 185 187 185 179 180 186 188 188 191 200 205 200 191 188
231 216 242 243 241 263 277 270 273 267 250 238 217 231 295 64 105 60 303 277 307 325 329 312 170 104 75 161 178 184 203 201 173 161 160 156 161 164 151 152 151 144 152 150 147 153 154 161 165 167 179 182 176 180 181 179 183 182 181 184 183 183 185 186 184 183 185 185 186 187 185 184 187 189 189 186 186 192 196 194 197 205 207 202 191 187
281 244 241 253 241 243 253 261 269 268 262 269 274 199 193 167 139 138 249 290 309 260 266 275 208 115 87 137 128 197 248 240 187 167 162 161 159 152 149 153 148 142 149 153 150 149 151 165 166 166 181 183 178 180 179 179 186 184 183 187 184 185 187 185 185 186 186 186 187 188 186 185 187 190 192 193 191 196 201 201 202 204 203 205 201 190
327 263 235 263 265 244 241 252 262 277 285 276 267 251 253 25 77 155 150 25 307 271 286 303 171 134 311 81 126 197 199 73 275 215 176 154 151 154 151 150 151 142 146 169 161 143 150 168 166 168 183 184 179 181 177 180 189 185 185 189 186 186 188 186 186 187 186 186 187 188 188 188 189 191 194 195 196 201 205 207 206 203 204 205 195 183
332 276 250 257 263 255 245 252 258 299 334 310 290 301 1 33 34 39 61 130 244 336 1 334 294 138 343 358 339 230 184 161 216 219 169 137 148 157 146 145 152 141 145 176 169 143 152 169 168 172 187 188 182 179 176 182 190 187 186 191 188 185 188 188 186 187 187 186 187 188 189 191 191 192 196 197 199 202 204 208 207 202 207 205 186 180
272 286 282 261 258 265 270 278 283 344 358 324 311 329 347 334 322 56 304 223 209 0 28 70 275 287 334 17 345 287 212 192 218 201 136 130 148 149 136 141 149 142 154 179 172 154 156 167 177 178 186 195 188 179 178 184 192 190 187 192 190 184 186 190 188 188 189 186 187 189 190 193 194 194 198 199 200 204 205 208 207 201 206 206 190 183
282 280 279 273 271 273 280 299 75 344 313 287 301 324 349 313 280 258 284 277 56 344 359 134 156 279 303 333 328 302 290 301 288 253 149 134 134 139 137 141 143 140 156 177 171 161 159 168 186 186 187 197 196 184 180 184 194 193 187 190 192 184 185 190 189 189 191 189 189 191 192 194 195 196 199 200 201 204 204 206 205 201 205 207 194 179
269 267 261 271 276 273 271 240 161 184 248 243 268 281 279 281 276 265 273 240 140 304 315 108 105 327 287 278 281 29 350 6 3 328 325 130 139 186 140 137 137 131 143 187 184 166 165 174 191 195 190 197 202 191 181 185 195 195 188 190 193 188 185 189 190 191 193 191 190 193 195 195 197 198 199 200 201 203 204 204 203 202 205 201 186 172
268 261 254 266 270 269 272 258 191 195 225 226 240 255 275 294 284 264 253 223 216 267 57 69 354 305 281 290 344 70 41 23 29 332 330 119 153 190 162 138 137 141 163 199 194 164 165 180 202 211 194 192 204 195 178 183 195 195 190 190 193 191 187 187 191 193 194 194 192 194 196 196 196 198 199 199 200 203 205 203 200 201 200 188 174 166
302 279 277 280 277 275 282 282 258 237 225 217 223 227 260 293 283 270 266 247 251 269 170 145 254 275 282 307 347 36 80 35 268 268 312 307 209 171 163 148 145 161 182 198 190 171 174 186 203 219 197 186 201 200 180 180 192 195 192 191 192 194 189 187 190 194 196 197 195 194 197 197 196 197 198 198 200 203 203 201 199 197 189 177 167 161
347 332 321 311 299 295 300 297 286 275 263 246 223 203 216 274 273 252 263 261 251 253 246 227 245 262 282 293 322 353 106 57 264 235 211 291 291 155 163 171 170 179 190 196 189 171 169 186 200 211 205 189 197 204 189 180 188 194 193 192 193 194 192 189 190 194 198 199 197 196 197 197 196 196 197 197 200 202 199 198 196 190 181 172 164 157
351 321 326 323 297 297 294 286 285 298 305 296 265 202 196 220 243 254 247 240 244 249 269 281 264 271 285 282 310 320 26 61 328 294 80 288 309 350 165 171 175 197 194 189 191 175 168 188 200 203 211 201 197 205 198 183 184 191 192 195 195 194 194 192 190 194 199 200 198 195 197 198 196 195 197 197 198 199 198 195 190 183 175 166 158 153
332 321 330 295 281 287 280 280 291 312 317 318 330 332 285 236 226 245 250 240 249 281 287 276 289 309 305 293 294 293 12 64 64 58 33 334 335 357 1 55 60 287 266 229 203 174 171 190 197 195 206 206 199 205 206 195 191 192 193 196 196 194 193 192 191 194 199 200 198 196 198 198 195 195 197 196 194 196 197 191 184 179 170 158 153 150
175 194 248 252 277 284 277 285 298 297 289 273 151 9 351 309 246 233 270 305 8 18 3 350 342 324 300 291 291 292 65 86 87 77 49 16 11 2 341 1 167 229 263 263 218 173 176 189 187 190 201 204 200 204 209 206 200 198 198 198 198 197 195 192 192 195 198 200 200 197 197 197 197 197 196 194 193 196 197 190 181 173 161 153 151 149
169 183 232 207 201 271 276 284 280 271 295 351 80 54 34 15 337 219 194 27 29 21 5 354 348 337 321 310 302 302 57 99 94 74 57 36 9 340 315 302 259 198 226 250 204 186 189 182 177 186 196 201 201 201 204 205 201 199 201 201 201 202 198 195 195 196 199 201 202 199 197 197 200 199 195 194 196 199 198 188 171 159 153 152 154 151
198 192 211 196 215 245 252 255 254 278 17 0 6 28 45 42 28 116 94 43 25 19 11 352 350 357 343 326 315 306 302 109 92 62 41 39 16 337 321 327 335 338 345 11 52 142 177 178 183 186 188 195 200 200 202 203 199 198 202 204 204 204 203 201 199 197 198 201 202 202 198 196 200 202 200 199 199 196 190 175 158 151 151 154 155 153
218 202 202 207 218 228 242 248 230 106 71 292 9 12 11 56 65 86 93 55 25 17 21 11 356 352 342 330 324 323 319 267 113 71 38 33 17 350 347 357 349 333 324 332 8 54 122 170 181 178 175 181 190 197 206 205 197 195 199 204 206 207 206 206 203 199 197 198 203 205 203 201 202 203 201 200 196 187 175 162 154 152 155 156 155 155
44 59 93 178 239 247 255 256 245 202 179 82 32 351 345 23 74 95 103 83 28 1 8 39 18 346 339 332 326 334 330 289 204 83 41 34 26 14 15 8 355 331 307 322 349 11 51 145 170 179 180 180 186 200 211 206 195 192 196 203 208 209 210 210 208 204 196 194 200 205 205 205 204 204 205 203 193 177 164 157 154 156 158 159 158 157
58 35 41 80 55 295 273 260 264 256 336 31 8 332 330 345 33 78 76 115 29 360 350 6 20 349 335 321 317 342 343 285 176 66 30 33 42 38 45 40 24 16 340 342 0 1 357 21 145 183 192 195 198 206 212 205 194 191 194 200 206 210 213 212 210 209 203 196 196 200 206 211 212 211 206 194 176 163 158 155 155 158 160 160 159 156
84 68 14 172 187 222 246 256 278 202 84 6 339 324 326 324 329 73 82 304 17 4 321 293 255 141 136 305 315 347 18 341 47 52 13 28 46 47 58 64 55 40 22 8 3 357 355 7 19 186 208 215 212 210 212 206 195 191 195 199 202 210 217 216 212 214 211 199 191 195 205 211 215 215 199 177 168 163 159 157 157 158 159 158 155 149
72 102 241 264 235 216 221 253 282 110 78 340 326 334 336 313 285 122 213 296 353 335 293 282 340 72 99 76 334 351 359 342 345 344 352 36 51 48 53 60 61 56 49 41 32 20 19 23 21 22 358 292 253 234 236 227 205 191 193 197 202 210 218 221 218 215 216 211 205 207 208 207 210 209 184 162 161 158 155 157 159 157 154 151 146 142
5 11 260 274 271 253 244 277 275 118 25 337 329 350 355 328 242 23 324 225 231 299 295 323 5 18 39 79 93 31 345 336 339 342 342 355 20 32 46 58 60 60 60 58 55 52 51 43 36 41 38 15 328 221 237 239 219 193 188 195 213 223 224 230 232 227 225 223 216 204 190 182 183 176 157 153 158 156 153 156 157 153 151 149 147 147
351 314 293 316 330 329 241 258 249 185 11 354 352 17 21 20 36 3 331 235 161 353 340 1 16 13 9 23 90 120 131 318 344 353 346 348 357 356 360 27 47 51 53 58 64 69 74 67 53 49 40 27 32 42 5 282 217 131 112 93 58 47 169 218 221 186 122 111 107 108 118 129 137 142 145 152 158 156 153 154 155 154 155 156 155 154
69 307 304 7 344 318 273 174 26 10 16 16 26 43 34 26 22 8 3 20 26 15 12 12 12 12 5 360 15 68 96 75 56 48 13 1 357 343 338 356 20 29 30 31 37 46 63 78 73 67 65 52 43 43 43 50 63 65 62 60 58 61 66 68 78 86 88 96 102 106 114 123 131 139 144 149 154 155 154 156 157 157 159 160 158 156
45 8 9 36 61 29 44 67 45 20 19 27 35 38 29 23 21 15 13 17 15 10 10 9 3 2 3 0 3 18 26 20 31 58 60 37 15 349 338 348 4 14 17 12 7 6 25 72 77 71 72 64 58 65 67 68 75 77 72 65 57 59 62 63 67 78 91 105 111 114 122 128 134 142 149 154 159 159 157 156 156 155 156 158 158 158
54 14 355 64 123 109 77 59 43 27 23 22 20 22 21 18 19 20 15 10 7 2 358 359 359 355 356 2 7 9 8 6 9 21 36 39 24 2 355 357 3 6 6 6 0 353 1 41 57 60 71 64 56 69 79 86 94 96 98 102 92 82 85 88 86 88 100 111 117 126 137 139 140 147 153 158 161 159 158 160 160 157 156 158 159 163
49 354 340 115 150 172 69 53 52 37 30 27 18 12 12 11 14 18 15 4 359 357 352 351 350 350 354 4 8 2 357 2 4 4 12 25 25 12 3 359 360 357 353 354 354 349 352 9 20 31 57 61 53 61 70 82 96 106 117 124 127 129 129 125 121 130 140 142 143 151 157 157 159 161 161 163 164 163 164 166 163 159 159 162 164 169
23 341 346 42 63 120 105 78 95 151 80 55 48 21 5 4 7 11 12 5 356 353 351 347 343 345 347 350 353 348 339 342 349 348 351 6 20 22 10 354 352 353 346 341 343 344 344 347 349 353 10 39 46 48 60 75 88 110 132 136 139 146 156 170 182 182 184 184 182 181 181 178 173 168 163 162 162 161 162 166 166 164 167 172 174 175
334 344 340 342 32 111 112 47 20 146 115 58 55 42 327 332 347 357 1 0 358 356 352 345 339 337 335 335 340 340 326 318 319 319 319 324 336 12 19 327 320 323 320 318 325 334 335 331 331 332 330 332 345 3 122 126 122 137 149 157 164 169 182 196 194 188 188 186 181 179 177 172 167 163 158 155 154 154 157 163 168 171 174 179 182 182
15 13 346 332 25 82 80 33 26 43 32 36 45 26 324 313 316 324 328 334 344 347 342 337 331 327 327 327 326 321 314 308 297 285 287 298 300 300 294 280 282 289 293 293 295 302 308 307 307 310 310 306 299 282 239 208 213 199 179 184 191 192 195 193 187 182 178 173 168 166 164 161 159 159 156 154 153 152 152 157 167 175 178 181 184 186
42 22 2 9 21 12 15 55 71 37 348 22 42 8 333 297 286 296 299 295 296 299 301 308 314 315 316 315 310 301 285 285 291 288 282 273 267 271 276 275 273 279 288 290 285 278 280 280 278 282 288 284 269 254 242 234 229 222 220 218 215 211 202 194 189 184 177 170 163 160 158 158 159 159 157 157 157 153 149 151 157 167 177 183 188 194